Voltar ao catálogo

CZ-3C DEB

AtivoGTO
NORAD 39356·DEBRIS·🇨🇳 China

Lançado Oct 31, 2010 de Xichang Satellite Launch Center

Loading…

TLE

EnvelhecendoSource: Space-Track

Época: Sep 14, 2026, 07:03 UTC

1 39356U 10057W   26257.29398000  .00000043  00000-0  75715-3 0  9997
2 39356  20.5344 270.5898 7120142 132.8017 314.2572  2.36959095108364

Acompanhe CZ-3C DEB em tempo real com AllMySat

Download on the App Store